SL-12 DEB, 41681

Orbit data source: Space-Track

SL-12 DEB, 41681 is space debris in HEO originally from a launch on Fri, 26 Oct 2007 UTC launched from the Tyuratam Missile And Space Complex (TTMTR). Debris objects in space refer to the collection of defunct objects orbiting the Earth. Examples of debris include non-operational satellites, rocket bodies, and fragments generated from explosions, collisions, or faulty payload assembly.

Loading next visibility...
Identifier
41681, 2007-052N
Orbit
HEO
Country
Flag of CISCIS
Related business
Manufacturer
RKKE
Mission
Spacecraft
Bus & Motor
Unknown
Mass
Unknown
Launch date (UTC)
2007-10-26 (18 years ago)
Launch vehicle
Unknown
Launch site
Tyuratam Missile And Space Complex (TTMTR)
Object type
Payload
Rocket body
Debris
Shape & HBR
Unknown shape, 0.2 m
Radar Cross Section
Medium (>0.1 m² and <1 m²)

Expand to show TLE details & history
Last TLE update: 2 days ago

TLE from 2 days ago
0 SL-12 DEB
1 41681U 07052N   25340.06063383  .00000855  00000-0  84431-3 0  9998
2 41681  64.9918 256.6620 5687851 207.4337 105.2938  4.39033377180468
Epoch: 2025-12-06T01:27Z
TLE epoch observation values (Epoch: 2025-12-06T01:27:18.762Z)
Latitude
-0.00003°
Longitude
159.74501°
Altitude
15,160.567 km
Speed
3.423 km/s
True Right ascension
17h 06m 40s
True Declination
0° 00' 00"
Sunlit
Object was in daylight at epoch
Visualization orbit readout
Latitude
Unknown
Longitude
Unknown
Altitude
Unknown
Speed
Unknown
Apparent Right ascension
Unknown
Apparent Declination
Unknown
Sunlit
N/A
Visualization observer readout
Local Sidereal Time
14:45:40
Azimuth
Unknown
Elevation
Unknown
Doppler factor
Unknown
Orbital elements
Apogee altitude
18,335.41 km
Perigee altitude
414.922 km
Semi-major axis
15,753.303 km
Eccentricity
0.56879
Inclination
64.9918°
RAAN
256.662°
Arg. of periapsis
207.4337°
True anomaly
152.63781°
Mean anomaly
105.2938°
Eccentric anomaly
130.18913°
Mean motion
1.09771 °/min
Orbital period
327.96 mins
BSTAR
0.00084431
Loading maneuver chart data...
Computing Atmospheric mass density...
Loading historical data...
Loading historical data...
Loading historical data...
Loading historical data...
Loading historical data...
Loading historical data...
Loading historical data...

Documentation

Showing up to 5 results
|